Wind_Speed
13 12 10 9 8 7 6 6 6 6 6 6 6 6 7 6 6 5 5 6 7 8 8 8 8 8 8 8 7 6 6 6 5 5 5 4 5 5 5 5 6 6 7 7
16 14 12 11 10 9 8 8 7 7 8 8 8 7 7 7 7 6 5 5 6 7 7 8 8 8 9 8 8 7 6 6 6 5 5 5 6 5 6 6 7 7 8 8
17 15 14 13 11 11 11 10 10 9 10 10 9 8 8 8 7 6 6 6 6 7 8 8 8 8 8 9 8 8 8 7 6 6 6 6 6 6 6 7 7 7 7 8
19 18 16 15 13 13 12 12 12 11 11 11 11 10 9 8 7 6 6 6 7 8 8 9 9 9 9 9 9 8 8 8 6 6 6 6 6 7 7 7 7 7 7 7
21 20 18 16 15 15 14 14 13 13 13 12 12 12 10 9 7 8 8 7 7 8 8 9 9 9 10 9 8 9 9 9 8 7 7 6 6 7 8 8 8 8 7 7
22 21 20 18 17 17 16 15 15 14 14 13 12 13 11 10 9 9 9 8 8 8 9 9 9 10 10 10 10 10 10 10 9 8 8 7 7 7 8 8 8 8 8 8
23 21 20 19 18 18 17 16 16 16 16 14 13 14 12 11 11 10 10 10 9 9 9 9 9 10 10 11 11 11 11 11 10 9 9 9 9 9 9 10 9 9 8 9
23 21 20 19 18 18 18 17 17 18 18 16 15 16 13 12 12 12 12 11 10 9 10 10 10 11 11 12 13 13 12 12 11 10 9 10 10 10 11 11 11 10 10 11
24 22 21 20 20 20 20 19 18 20 19 18 18 17 15 14 13 13 13 13 12 12 12 12 12 12 12 13 14 14 14 13 13 12 12 11 12 12 12 13 13 13 13 13
25 24 23 22 22 22 22 20 20 21 22 21 21 19 16 15 15 15 15 15 14 14 14 14 13 13 14 15 15 15 15 14 13 13 13 13 14 14 14 14 15 15 16 15
25 25 24 24 24 23 23 22 23 23 24 24 24 22 18 17 17 17 17 16 16 15 16 16 16 15 15 15 15 15 15 15 15 15 15 15 16 16 16 17 17 18 18 18
25 25 25 25 25 25 25 24 24 25 26 26 26 23 20 20 20 19 18 18 18 17 17 17 17 17 16 15 15 16 16 17 17 17 17 17 17 17 17 18 18 19 19 20
25 26 25 26 26 26 26 26 27 27 27 27 27 24 22 22 22 21 21 20 19 18 18 18 19 19 18 17 18 18 18 18 18 18 18 18 19 19 19 20 20 20 20 21
27 27 27 26 26 27 27 27 27 28 29 28 27 25 24 24 23 23 22 22 21 19 19 19 20 20 19 20 20 20 20 20 20 20 20 20 21 21 21 22 22 22 22 22
29 29 28 27 28 28 29 28 29 29 30 30 29 27 25 25 24 24 24 24 23 22 22 22 21 21 21 21 22 21 22 22 22 22 22 22 23 23 23 23 23 23 23 24
30 30 29 29 30 30 30 30 30 30 30 31 31 30 28 27 26 26 25 25 25 24 23 23 23 24 24 24 24 24 24 24 25 24 25 25 24 24 25 25 26 26 26 26
32 32 32 31 31 32 32 30 31 31 31 31 32 31 30 29 28 27 26 25 25 25 25 25 25 25 25 26 27 27 27 27 27 27 26 27 27 27 27 27 28 28 27 26
33 33 33 33 33 34 32 31 32 32 32 32 31 31 30 29 29 29 27 27 26 26 26 27 28 28 28 28 29 29 28 27 28 28 28 28 28 28 29 29 28 27 26 27
33 33 34 34 35 35 32 32 32 32 32 31 32 31 31 31 31 30 29 29 29 28 28 27 28 29 30 30 31 30 29 29 29 30 30 29 30 30 30 29 28 27 27 27
33 33 34 35 36 36 33 33 33 33 33 32 33 33 32 32 32 31 30 30 31 31 30 29 29 30 31 31 31 31 30 30 30 30 29 30 30 30 30 29 28 28 29 28
33 34 34 35 36 36 34 34 34 34 33 33 33 33 33 32 32 31 31 31 32 32 32 31 31 32 32 33 32 31 31 31 32 32 31 31 30 30 30 30 29 28 27 27
33 34 35 35 37 36 34 34 35 35 34 33 33 34 34 33 33 32 32 32 33 34 34 33 32 33 34 34 33 32 32 32 33 33 32 31 30 31 31 30 30 29 29 28
34 35 36 36 37 36 35 35 35 36 35 35 34 34 35 34 34 34 34 34 35 35 34 34 35 35 34 34 34 34 34 33 33 32 31 30 30 31 31 31 31 31 31 30
34 34 35 36 35 36 36 36 35 36 36 36 36 36 36 37 36 37 36 35 35 34 34 35 35 34 34 35 35 35 34 34 33 32 31 31 31 32 33 33 33 33 33 33
34 35 35 36 36 36 35 36 36 36 36 36 35 35 36 36 36 36 36 35 34 35 35 36 36 35 35 36 35 35 35 34 34 33 33 33 33 34 33 33 33 34 33 34
33 35 35 35 35 35 34 35 36 36 35 35 35 35 36 36 36 35 35 35 35 36 36 36 36 36 36 36 36 35 35 35 34 34 34 34 35 35 34 34 34 33 34 33
Wind_Direction
221 223 227 233 236 231 233 249 265 289 295 309 322 330 334 342 347 347 356 1 3 3 0 3 4 4 2 0 357 352 355 354 346 341 344 343 337 328 316 296 276 272 273 277
223 224 229 235 241 244 245 252 267 282 290 299 306 311 319 335 339 339 341 347 351 349 347 351 355 355 349 347 349 346 345 343 336 335 335 331 330 324 315 307 279 273 272 274
222 225 231 235 241 247 250 254 264 272 283 290 297 300 306 317 327 340 342 345 340 337 341 344 346 347 341 340 342 341 337 333 330 332 330 326 328 324 314 308 292 277 272 271
223 225 230 235 240 245 247 254 260 265 272 281 288 296 302 306 314 325 326 339 338 328 326 326 329 333 337 338 342 342 339 337 332 327 326 324 324 324 317 313 305 291 285 272
225 226 230 237 241 246 246 249 256 260 267 276 284 289 299 302 304 312 313 323 327 321 316 322 331 331 330 331 336 339 336 331 325 320 315 315 314 319 321 321 314 293 284 284
227 229 231 234 237 241 242 248 256 262 268 275 282 287 295 298 299 301 303 310 310 310 313 321 333 337 332 327 326 326 323 317 315 312 310 311 312 315 317 316 313 302 291 292
230 232 233 234 238 241 244 250 258 264 268 275 279 281 289 297 295 292 294 297 305 310 317 320 328 334 327 321 319 316 314 311 307 303 301 303 306 310 311 313 312 306 297 296
230 231 233 238 241 244 245 250 258 265 269 274 277 279 282 291 293 292 292 293 300 304 313 312 317 324 327 323 319 315 311 305 302 298 294 297 300 304 308 309 309 306 300 298
232 232 235 238 241 243 245 249 257 263 267 272 274 279 279 283 287 290 292 293 296 298 303 305 308 310 314 316 317 315 309 303 299 298 297 297 299 301 302 303 303 300 299 296
235 235 233 236 240 243 247 249 254 259 266 270 272 275 280 281 282 285 287 289 291 294 298 302 303 303 305 307 309 311 309 305 301 300 301 299 297 296 297 297 295 292 291 290
236 237 235 235 238 242 245 249 253 258 263 268 271 273 277 278 279 282 285 288 291 293 295 297 297 300 302 301 303 306 308 305 301 299 297 295 295 294 292 292 291 289 287 286
239 240 238 238 242 244 246 249 254 259 264 268 271 272 273 276 277 279 282 286 288 290 293 296 296 296 297 299 300 306 306 302 298 296 295 294 292 291 290 290 291 290 288 285
243 244 244 241 244 247 250 252 254 258 261 265 268 270 271 273 274 277 280 283 285 287 290 294 297 296 295 297 299 301 301 298 296 294 291 293 292 291 289 288 287 289 290 286
248 248 249 250 251 251 253 256 256 259 262 264 266 269 271 272 273 274 279 282 284 285 288 290 294 295 295 296 298 298 298 294 295 292 291 291 291 290 292 291 289 288 288 286
248 251 252 253 252 252 253 256 257 260 263 265 266 268 270 273 273 274 277 279 282 284 286 289 292 290 290 291 294 294 294 293 293 293 294 293 293 293 293 293 289 287 289 287
249 252 254 255 255 254 255 256 258 261 262 263 265 266 269 270 272 273 275 277 279 280 281 284 286 286 286 286 289 290 289 289 290 290 291 291 293 292 292 292 292 291 292 288
251 252 254 257 258 257 257 258 260 262 263 265 266 268 269 269 270 271 274 275 276 277 278 281 283 284 286 287 289 288 288 289 290 290 291 290 291 292 293 292 291 290 289 286
250 251 253 255 257 258 261 261 261 263 264 265 267 268 268 269 270 269 271 274 274 276 280 281 283 285 285 288 290 289 293 293 293 293 292 290 291 294 293 291 288 287 286 285
250 251 252 254 256 259 261 262 263 265 265 265 266 269 270 270 270 269 271 273 273 274 278 280 283 285 285 287 290 292 294 294 294 294 293 292 291 292 292 290 286 285 285 286
248 250 253 255 257 259 261 264 266 267 267 267 268 269 271 271 270 271 271 271 271 272 275 278 281 284 286 287 289 292 292 293 293 294 293 292 292 291 291 290 286 286 285 286
251 252 254 257 259 260 262 263 265 266 269 269 269 269 270 270 270 270 269 269 269 271 273 276 279 282 284 286 288 290 291 291 292 292 291 291 291 290 290 290 289 287 286 287
253 255 256 257 259 261 262 262 264 266 268 269 268 267 269 269 269 269 269 268 268 271 272 275 277 280 282 285 287 288 288 289 290 290 290 290 289 288 288 287 287 287 287 287
255 256 257 258 260 262 262 263 264 264 266 268 268 268 268 269 268 269 270 269 270 270 273 275 277 278 279 282 285 287 287 286 287 288 289 289 286 286 286 285 285 286 287 287
257 259 260 260 260 261 262 262 262 263 265 266 267 267 268 268 269 270 269 268 268 269 272 274 276 277 278 280 283 285 285 285 286 287 287 287 286 285 285 285 284 283 284 285
260 260 262 262 262 262 262 262 262 263 265 266 267 267 268 268 269 270 269 266 266 268 270 273 275 276 277 279 281 283 283 283 284 285 285 285 285 285 285 284 283 282 284 284
259 260 263 263 262 263 262 262 262 263 265 267 267 267 268 268 268 268 268 267 268 269 270 272 275 276 277 278 280 281 282 282 282 283 284 285 285 284 284 283 283 283 283 284
Height
5908 5911 5912 5913 5913 5914 5914 5914 5914 5914 5914 5914 5913 5913 5913 5911 5910 5909 5908 5907 5906 5905 5904 5903 5902 5901 5900 5899 5898 5897 5897 5896 5895 5894 5893 5892 5891 5890 5889 5889 5889 5889 5888 5888
5907 5909 5910 5911 5911 5912 5913 5913 5914 5914 5913 5913 5912 5912 5912 5911 5910 5909 5908 5907 5906 5905 5904 5903 5902 5901 5900 5899 5898 5897 5896 5895 5894 5893 5893 5892 5891 5890 5889 5887 5887 5886 5886 5886
5905 5908 5908 5909 5910 5910 5911 5912 5912 5912 5912 5911 5912 5912 5911 5910 5909 5909 5908 5906 5906 5905 5904 5902 5901 5900 5899 5898 5897 5896 5895 5894 5894 5893 5892 5891 5890 5889 5888 5886 5885 5884 5884 5884
5901 5904 5905 5906 5908 5908 5909 5910 5910 5910 5910 5910 5910 5910 5910 5909 5908 5908 5907 5906 5905 5904 5903 5902 5900 5899 5898 5897 5896 5895 5894 5893 5892 5892 5891 5890 5889 5888 5886 5885 5884 5883 5882 5882
5898 5901 5903 5904 5906 5906 5907 5908 5908 5907 5907 5908 5908 5908 5909 5908 5907 5907 5906 5906 5905 5903 5902 5900 5899 5898 5896 5895 5894 5894 5893 5892 5891 5890 5889 5888 5888 5886 5885 5884 5882 5881 5881 5880
5895 5897 5899 5901 5902 5903 5904 5905 5905 5905 5905 5906 5906 5906 5907 5906 5906 5905 5905 5904 5903 5902 5901 5899 5897 5896 5895 5894 5893 5892 5891 5890 5889 5888 5888 5887 5886 5885 5884 5883 5882 5880 5879 5879
5891 5894 5896 5898 5899 5900 5901 5903 5903 5902 5902 5903 5904 5903 5905 5905 5904 5904 5903 5903 5902 5900 5899 5897 5896 5895 5893 5892 5891 5890 5889 5888 5887 5886 5886 5885 5884 5884 5883 5882 5880 5879 5878 5877
5887 5890 5892 5894 5896 5897 5898 5899 5900 5900 5900 5900 5901 5900 5903 5903 5902 5901 5901 5901 5899 5898 5897 5896 5894 5893 5891 5890 5889 5887 5886 5885 5884 5884 5883 5882 5882 5882 5881 5880 5878 5877 5876 5875
5883 5886 5889 5890 5892 5893 5894 5895 5896 5896 5896 5896 5897 5898 5899 5900 5899 5899 5898 5898 5897 5896 5895 5894 5892 5891 5889 5888 5886 5884 5883 5882 5881 5881 5881 5880 5880 5879 5878 5877 5876 5875 5874 5873
5878 5881 5884 5885 5887 5888 5890 5891 5892 5892 5891 5892 5893 5894 5895 5896 5896 5895 5895 5894 5893 5892 5891 5890 5889 5887 5886 5884 5883 5881 5880 5879 5879 5878 5878 5877 5876 5875 5874 5874 5873 5872 5871 5870
5873 5876 5879 5880 5882 5883 5885 5886 5887 5887 5888 5888 5887 5891 5891 5892 5892 5891 5891 5891 5890 5889 5888 5886 5885 5884 5882 5881 5879 5878 5877 5876 5875 5875 5874 5873 5872 5871 5870 5870 5869 5867 5866 5866
5868 5870 5872 5875 5877 5878 5879 5880 5882 5883 5883 5883 5883 5887 5886 5886 5886 5887 5887 5886 5885 5885 5883 5882 5881 5879 5878 5877 5875 5874 5873 5872 5871 5870 5870 5869 5868 5867 5866 5865 5864 5862 5861 5860
5862 5865 5867 5869 5872 5873 5873 5874 5876 5876 5877 5877 5878 5882 5881 5881 5881 5881 5881 5881 5881 5880 5879 5878 5876 5875 5874 5872 5871 5870 5869 5867 5866 5865 5864 5864 5863 5862 5861 5860 5858 5856 5855 5854
5857 5859 5862 5864 5865 5866 5867 5869 5869 5870 5870 5871 5872 5874 5875 5875 5875 5876 5876 5876 5875 5875 5874 5873 5872 5870 5869 5868 5866 5865 5864 5862 5861 5860 5858 5858 5857 5856 5855 5854 5852 5851 5849 5848
5850 5852 5854 5857 5858 5859 5861 5862 5863 5864 5864 5865 5867 5868 5869 5869 5870 5870 5870 5870 5869 5869 5868 5868 5866 5865 5863 5862 5861 5860 5859 5857 5856 5854 5853 5852 5851 5850 5848 5847 5845 5844 5843 5841
5843 5845 5847 5849 5851 5852 5853 5855 5856 5857 5857 5858 5859 5861 5863 5863 5863 5864 5864 5863 5863 5863 5862 5861 5860 5859 5857 5856 5855 5854 5853 5851 5849 5848 5846 5845 5844 5843 5842 5840 5838 5837 5836 5834
5836 5838 5840 5841 5843 5843 5845 5848 5849 5849 5850 5851 5852 5854 5855 5855 5856 5857 5857 5857 5856 5856 5855 5855 5854 5852 5851 5850 5849 5847 5846 5844 5842 5841 5839 5838 5837 5836 5834 5832 5830 5829 5827 5826
5828 5830 5831 5833 5835 5835 5840 5840 5841 5841 5843 5844 5844 5846 5846 5848 5848 5849 5850 5850 5849 5849 5848 5847 5846 5845 5844 5843 5842 5840 5838 5836 5835 5834 5832 5831 5829 5828 5826 5824 5822 5820 5819 5818
5820 5822 5823 5824 5825 5827 5831 5832 5833 5834 5835 5836 5836 5837 5838 5839 5840 5841 5841 5841 5841 5841 5840 5839 5839 5838 5836 5835 5834 5831 5830 5828 5827 5825 5824 5822 5821 5819 5817 5815 5813 5812 5811 5811
5811 5813 5815 5816 5817 5819 5824 5824 5824 5826 5826 5828 5828 5829 5830 5830 5831 5833 5832 5832 5831 5831 5831 5830 5830 5829 5828 5827 5825 5824 5822 5820 5819 5817 5815 5814 5812 5810 5808 5807 5806 5804 5803 5802
5803 5804 5806 5807 5808 5810 5814 5815 5816 5817 5819 5819 5819 5820 5820 5821 5822 5823 5822 5822 5822 5821 5821 5820 5820 5819 5819 5817 5816 5815 5814 5812 5811 5809 5807 5805 5803 5802 5801 5799 5798 5796 5795 5794
5794 5796 5797 5798 5799 5804 5805 5806 5807 5808 5808 5808 5809 5810 5811 5811 5812 5812 5812 5812 5812 5812 5811 5811 5810 5810 5809 5808 5807 5806 5805 5804 5802 5800 5799 5797 5795 5794 5793 5791 5790 5789 5787 5786
5786 5788 5788 5790 5793 5794 5795 5796 5797 5798 5798 5799 5799 5800 5800 5801 5802 5802 5802 5802 5802 5802 5801 5801 5801 5800 5799 5799 5798 5797 5796 5795 5794 5792 5790 5788 5787 5785 5784 5783 5781 5780 5779 5777
5777 5778 5779 5780 5783 5784 5785 5786 5787 5788 5788 5789 5789 5790 5790 5791 5791 5792 5792 5792 5792 5792 5792 5791 5791 5790 5790 5789 5788 5787 5787 5785 5784 5783 5781 5779 5778 5776 5775 5773 5772 5771 5770 5768
5768 5769 5769 5770 5772 5774 5775 5776 5777 5778 5778 5778 5779 5779 5779 5780 5780 5781 5781 5781 5782 5782 5781 5781 5781 5780 5780 5779 5778 5777 5777 5775 5774 5773 5772 5770 5768 5767 5765 5764 5762 5761 5760 5758
5759 5759 5760 5761 5763 5764 5766 5766 5767 5767 5768 5768 5769 5769 5769 5769 5770 5770 5770 5771 5771 5772 5771 5771 5770 5770 5769 5768 5767 5767 5766 5765 5765 5764 5762 5761 5759 5758 5756 5754 5753 5751 5750 5748